Regional Weather Roundup
Issued by NWS

Home | Current Version | Previous Version | Text Only | Print | Product List | Glossary On
Versions: 1 2 3 4 5 6 7 8 9 10 11 12 13 14 15 16 17 18 19 20 21 22 23 24 25 26 27 28 29 30 31 32 33 34 35 36 37 38 39 40 41 42 43 44 45 46 47 48 49 50
000
ASUS44 KLUB 250801
RWRTX
WEST TEXAS WEATHER ROUNDUP
NATIONAL WEATHER SERVICE LUBBOCK TX
300 AM CDT SAT OCT 25 2014

NOTE: "FAIR" INDICATES FEW OR NO CLOUDS BELOW 12,000 FEET WITH NO
SIGNIFICANT WEATHER AND/OR OBSTRUCTIONS TO VISIBILITY.

TXZ004-006>008-010-012-014-016-OKZ002-250900-
TEXAS PANHANDLE/OKLAHOMA PANHANDLE

CITY           SKY/WX    TMP DP  RH WIND       PRES   REMARKS
AMARILLO       CLEAR     59  46  62 SW10      30.15S
BORGER         CLEAR     60  44  55 CALM      30.13R
CANADIAN       CLEAR     53  51  93 CALM      30.09S
DALHART        CLEAR     51  41  68 SW8       30.16F
DUMAS            N/A     53  40  60 SW8       30.14S
GUYMON         CLEAR     54  42  64 S5        30.10S
HEREFORD       CLEAR     51  46  80 SW5       30.18S
PAMPA          CLEAR     56  47  71 SW6       30.14S
$$

TXZ026-029-035-045-048-250900-
SOUTHERN PANHANDLE/SOUTH PLAINS/ROLLING PLAINS

CITY           SKY/WX    TMP DP  RH WIND       PRES   REMARKS
CHILDRESS      CLEAR     64  55  72 SW6       30.10S
LUBBOCK        CLEAR     56  48  74 S6        30.17R
SNYDER         CLEAR     59  54  83 SW6       30.16S
$$

TXZ052-054-060>062-072-078-127-140-154-169-250900-
PERMIAN BASIN/CONCHO VALLEY/BIG COUNTRY/EDWARDS PLATEAU

CITY           SKY/WX    TMP DP  RH WIND       PRES   REMARKS
ABILENE        CLEAR     68  55  63 SW5       30.13S
BIG SPRING     CLEAR     64  58  83 SE7       30.19S
JUNCTION       CLEAR     61  56  83 S3        30.17S
MIDLAND        CLEAR     63  54  72 SW5       30.17S
ODESSA         CLEAR     65  58  78 S9        30.18S
SAN ANGELO     CLEAR     62  56  80 W5        30.15R
SONORA         CLEAR     54  52  94 CALM      30.22F
SWEETWATER     CLEAR     67  56  68 SW16      30.18R
WINK           CLEAR     62  55  77 E5        30.15R
$$

TXZ055-058-074-075-080-082-250900-
FAR WEST/SOUTHWEST MOUNTAINS/TRANS PECOS

CITY           SKY/WX    TMP DP  RH WIND       PRES   REMARKS
ALPINE         CLEAR     58  52  78 SW7       30.31S
DRYDEN           N/A     64  61  90 N8        30.14S
EL PASO        CLEAR     63  48  58 CALM      30.20S
FORT STOCKTON  CLEAR     63  58  83 S9        30.17S
MARFA          CLEAR     50  48  93 NW6       30.30S
PECOS          CLEAR     59  53  81 CALM      30.14S
PRESIDIO       FAIR      68  52  57 MISG      30.16S
$$

TXZ014-016-019-021>030-083-250900
TEXAS TECH WEST TEXAS MESONET/TEXAS PANHANDLE/NORTHERN SOUTH PLAINS

CITY           SKY/WX    TMP DP  RH WIND       PRES   REMARKS
ABERNATHY 5ENE   N/A     52  49  88 SW7       30.18S
AMARILLO 9NNE    N/A     52  44  73 S2        30.14S
AMARILLO 7SSE    N/A     50  45  83 SW8       30.17S
AMHERST 1NE      N/A     55  47  74 SW5       30.18S
BOOTLEG 11WNW    N/A     54  46  73 SW12      30.21S
CANADIAN 6E      N/A     57  52  85 NW2       30.08S
CAPROCK CYN SP   N/A     72  48  42 SW18      30.11F
CHILDRESS 2NNE   N/A     68  56  64 SW12      30.08S
CLARENDON 2WSW   N/A     62  52  68 SW9       30.12S
CLAUDE 12SW      N/A     64  46  51 SW3       30.16R
DIMMITT 2NE      N/A     59  46  63 SW9       30.18S
FLOYDADA 2NNE    N/A     58  50  76 SW7       30.16S
FRIONA 2NE       N/A     52  44  75 W6        30.20S
GOODLETT 3W      N/A     62  55  76 SW9       30.07S
HART 3N          N/A     50  46  86 SW5       30.18S
HEREFORD 2NW     N/A     51  43  74 SW8       30.17F
MCLEAN 1E        N/A     65  52  62 SW9       30.10S
MEMPHIS 1NE      N/A     57  54  91 NW2       30.09S
MULESHOE 2SSW    N/A     46  42  87 W6        30.19S
OLTON 6S         N/A     51  46  84 W7        30.17F
PALO DURO SP     N/A     59  45  59 W8        30.16S
PAMPA 2E         N/A     59  48  67 SW8       30.13S
PLAINVIEW 1S     N/A     54  49  85 W5        30.16S
SILVERTON 7ESE   N/A     56  51  81 SW10      30.15S
TULIA 2ENE       N/A     53  47  80 SW9       30.16F
TURKEY 2WSW      N/A     63  53  69 SW12      30.10S
UMBARGER 3NNE    N/A     52  44  73 SW9       30.17S
$$

TXZ033>036-039>041-045>048-250900
TEXAS TECH WEST TEXAS MESONET/SOUTH PLAINS

CITY           SKY/WX    TMP DP  RH WIND       PRES   REMARKS
AIKEN 3WSW       N/A     51  49  92 SW5       30.18S
ANDREWS 2NE      N/A     62  55  77 S7        30.18S
ANTON 6SSW       N/A     54  49  82 NW1       30.18R
BROWNFIELD 2S    N/A     56  49  76 SW9       30.18S
DENVR CTY 7WNW   N/A     58  49  73 SW8       30.19S
GAIL 2ESE        N/A     62  55  76 SW7       30.15S
LAMESA 2SE       N/A     53  49  88 S6        30.18S
LEVELLAND 4S     N/A     52  45  78 W7        30.18S
LUBBOCK 3WNW     N/A     59  48  66 S5        30.17S
MORTON 1ENE      N/A     59  48  66 SW7       30.19S
ODONNELL 1N      N/A     56  50  79 S5        30.18S
PLAINS 3N        N/A     52  45  77 SW7       30.20R
RALLS 1SE        N/A     58  49  71 SW7       30.17S
REESE CENTER     N/A     56  49  77 SW6       30.17S
SEMINOLE 2NNE    N/A     60  52  74 SW3       30.18S
SLATON 2NE       N/A     58  49  72 SW9       30.17S
SNYDER 3E        N/A     63  55  76 S7        30.15S
SUNDOWN 8SW      N/A     53  46  78 SW9       30.19R
TAHOKA 3NNE      N/A     60  50  68 SW7       30.17S
WOLFFORTH 6SSW   N/A     55  51  85 S6        30.18R
$$

TXZ031-032-036>038-042>044-250900-
TEXAS TECH WEST TEXAS MESONET/ROLLING PLAINS

CITY           SKY/WX    TMP DP  RH WIND       PRES   REMARKS
ASPERMONT 3NE    N/A     62  55  77 SW6       30.10S
FLUVANNA 3WNW    N/A     60  54  81 S8        30.16S
GRAHAM 5SSW      N/A     63  51  66 SW6       30.16S
GUTHRIE 10WSW    N/A     62  55  78 SW6       30.10F
HASKELL 1NW      N/A     64  52  65 S8        30.09S
JAYTON 1SSE      N/A     64  54  70 W6        30.12S
KNOX CITY 3NW    N/A     62  53  71 SW7       30.10S
LK A HENRY 1NW   N/A     64  56  73 SW8       30.13S
NORTHFIELD 1S    N/A     63  55  74 SW6       30.09S
ODELL 4ENE       N/A     65  55  69 SW6       30.07S
PADUCAH 10SW     N/A     65  54  67 SW12      30.09S
POST 1NE         N/A     67  52  60 SW10      30.14S
RRING SPRGS 3N   N/A     64  52  66 SW9       30.12F
SEYMOUR 3NW      N/A     63  54  72 S5        30.07S
SPUR 1W          N/A     57  52  82 SW2       30.12S
WEINERT 2NNE     N/A     65  54  66 S8        30.10R
WHITE RVR 6NE    N/A     64  50  58 S7        30.14S
$$

TXZ052-054-060>062-072-078-127-140-154-169-250900-
TEXAS TECH WEST TEXAS MESONET/PERMIAN BASIN/
CONCHO VALLEY/BIG COUNTRY/EDWARDS PLATEAU

CITY           SKY/WX    TMP DP  RH WIND       PRES   REMARKS
COYANOSA 2N      N/A     63  58  83 SE1       30.15R
JUNCTION 1SSW    N/A     59  55  89 S3        30.18S
MERTZON 3NNE     N/A     63  58  82 S7        30.17R
SAN ANGELO 7NW   N/A     60  53  78 N2        30.16R
STRLNG CT 4WSW   N/A     67  58  74 S9        30.17S
ST LAWRNCE 5SW   N/A     59  54  83 S7        30.17F
SWEETWATR 11SW   N/A     62  55  78 S7        30.17S
WALL 1E          N/A     66  57  72 S7        30.16R
$$

TXZ055-058-074-075-080-082-250900-
TEXAS TECH WEST TEXAS MESONET/FAR WEST/SOUTHWEST MOUNTAINS/TRANS PECOS

CITY           SKY/WX    TMP DP  RH WIND       PRES   REMARKS
PRSMN GAP BBNP   N/A     68  59  73 N3        30.18S
GUADLPE MTN NP   N/A     62  41  46 SW6       30.30S
$$



USA.gov is the U.S. government's official web portal to all federal, state and local government web resources and services.